Location: Asheville, NC
(35.6000°N, 82.5500°W)
Time: 16:53:35
(UTC-04:00)

ISS - Pass Details

Date: 07 May 2026
Orbit: 414 x 424 km, 51.6° (Epoch: 15 May)

Event Time Altitude Azimuth Distance (km) Brightness Sun altitude
Rises 23:25:51 0° 273° (W) 2,339 0.5 -30.0°
Reaches altitude 10° 23:28:42 10° 300° (WNW) 1,481 -0.3 -30.4°
Enters shadow 23:29:46 13° 318° (NW) 1,303 -0.5 -30.5°
